Regional Weather Roundup
Issued by NWS

Home | Current Version | Previous Version | Graphics & Text | Print | Product List | Glossary Off
Versions: 1 2 3 4 5 6 7 8 9 10 11 12 13 14 15 16 17 18 19 20 21 22 23 24 25 26 27 28 29 30 31 32 33 34 35 36 37 38 39 40 41 42 43 44 45 46 47 48 49 50

379
ASUS43 KDMX 052101
RWRIA

WEATHER ROUNDUP FOR IOWA
NATIONAL WEATHER SERVICE DES MOINES IA
300 PM CST MON DEC 05 2016

NOTE: "FAIR" INDICATES FEW OR NO CLOUDS BELOW 12,000 FEET WITH NO
SIGNIFICANT WEATHER AND/OR OBSTRUCTIONS TO VISIBILITY.

* - THESE STATIONS ARE NOT NWS STATIONS...THUS NOT UNDER NWS
QUALITY CONTROL.  THEY ALSO DO NOT REPORT WEATHER SUCH
AS PRECIPITATION OR FOG.

IAZ001>003-012>014-020>022-031>034-043>046-052200-
   NORTHWEST IOWA

CITY           SKY/WX    TMP DP  RH WIND       PRES   REMARKS
CARROLL *      CLOUDY    46  36  66 S17G26    29.66F
CHEROKEE *     CLOUDY    44  36  72 S22G31    29.59R
DENISON *      CLOUDY    46  36  66 S20G26    29.60F
LE MARS *      CLOUDY    45  34  65 S20G33    29.56S
ORANGE CITY *  CLOUDY    43  36  75 S22G28    29.55R
SHELDON *      CLOUDY    43  36  75 S24G32    29.53S
SIOUX CITY     CLOUDY    47  35  63 S18G29    29.58F
SPENCER        CLOUDY    45  34  65 S31G41    29.58R
STORM LAKE *   CLOUDY    43  36  75 S25G32    29.60S
$$

IAZ055>058-069>071-079>083-090>094-052200-
   SOUTHWEST IOWA

CITY           SKY/WX    TMP DP  RH WIND       PRES   REMARKS
ATLANTIC *     SUNNY     50  37  62 S23G29    29.69S
AUDUBON *      MOSUNNY   48  36  61 S18G25    29.68S
CLARINDA *       N/A     52  36  54 S18         N/A
COUNCIL BLFS * SUNNY     50  36  57 S25G33    29.64F
CRESTON *      SUNNY     48  37  66 S14G24    29.73S
HARLAN  *      CLOUDY    46  36  66 S18G36    29.67F
LAMONI         SUNNY     47  40  76 SE12G20   29.76F
RED OAK *      SUNNY     50  39  66 S18G25    29.71R
SHENANDOAH *   SUNNY     50  39  66 S14G24    29.72R
$$

IAZ047>049-059>061-072>074-084-052200-
   CENTRAL IOWA

CITY           SKY/WX    TMP DP  RH WIND       PRES   REMARKS
AMES           CLOUDY    46  39  76 S13       29.74F
ANKENY *       PTSUNNY   48 N/A N/A S16G24    29.76S
BOONE *        CLOUDY    41  34  75 SE13      29.71F
CHARITON *       N/A     46  37  71 S17G23    29.78F
DES MOINES     PTSUNNY   49  35  58 S18       29.76F
GRINNELL*      PTSUNNY   40  37  86 SE12      29.82F WCI  34
KNOXVILLE *    SUNNY     46  36  66 SE13G20   29.78F
MARSHALLTOWN   CLOUDY    36  35  96 SE14      29.80S FOG     WCI  27
NEWTON *       MOSUNNY   45  36  70 S16       29.79F
PELLA *        SUNNY     47  37  67 S14       29.82F
PERRY *          N/A     47  41  78 SE15      29.71F
$$

IAZ004>006-015-016-023>025-035-036-052200-
   NORTH CENTRAL IOWA

CITY           SKY/WX    TMP DP  RH WIND       PRES   REMARKS
ALGONA *       CLOUDY    43  37  81 S23G32    29.63F
CLARION *      CLOUDY    39  39 100 SE22G29   29.69S WCI  29
ESTHERVILLE    CLOUDY    44  36  73 S32G45    29.56F
FORT DODGE *   CLOUDY    45  34  65 S17G26    29.68S
MASON CITY     CLOUDY    35  33  92 SE18G24   29.72F WCI  24
WEBSTER CITY * CLOUDY    41  39  93 SE18G25   29.67F
IOWA FALLS *     N/A     37  35  93 SE17G23   29.75F FOG     WCI  27
$$

IAZ007>011-017>019-026>030-037>042-050>054-066-052200-
   NORTHEAST IOWA

CITY           SKY/WX    TMP DP  RH WIND       PRES   REMARKS
CEDAR RAPIDS   CLOUDY    33  33 100 S14       29.86F FOG     WCI  23
CHARLES CITY * CLOUDY    34  34 100 SE17      29.78S WCI  23
CLINTON *      CLOUDY    35  32  88 SE12      29.94R WCI  27
DECORAH *      MOSUNNY   34  32  93 S15G22    29.82R WCI  24
DUBUQUE        LGT SNOW  32  31  96 S13       29.89F FOG     WCI  22
MONTICELLO *   CLOUDY    34  32  93 S10G17    29.90R FOG     WCI  26
OELWEIN *      CLOUDY    34  34 100 S14       29.85S WCI  24
WATERLOO       CLOUDY    34  31  88 SE15G25   29.82S WCI  24
$$

IAZ064-065-067-068-078-052200-
   EAST CENTRAL IOWA

CITY           SKY/WX    TMP DP  RH WIND       PRES   REMARKS
DAVENPORT      CLOUDY    35  32  88 S12       29.92S WCI  27
IOWA CITY      CLOUDY    35  33  92 SE9       29.91S FOG     WCI  28
MUSCATINE *    CLOUDY    36  34  93 SE7G15    29.92R FOG     WCI  30
QUAD CITIES    CLOUDY    36  32  85 SE10      29.92F FOG     WCI  28
$$

IAZ062-063-075>077-085>089-095>099-052200-
   SOUTHEAST IOWA

CITY           SKY/WX    TMP DP  RH WIND       PRES   REMARKS
BURLINGTON     CLOUDY    35  35 100 SE7       29.90F FOG     WCI  29
FAIRFIELD *    SUNNY     39  36  87 SE14      29.86S WCI  31
FORT MADISON * CLOUDY    37  36  93 SE7       29.90S FOG     WCI  32
KEOKUK *       CLOUDY    37  36  93 SE9G15    29.88F WCI  31
OSKALOOSA *      N/A     43  38  81 S15       29.84S
CENTERVILLE *    N/A     43  43 100 S13       29.83F
OTTUMWA        SUNNY     44  35  70 S15       29.83F
WASHINGTON *   PTSUNNY   36  34  93 SE13      29.88F FOG     WCI  27
$$

ABBREVIATIONS USED IN REMARKS
   TC - TEMPERATURES IN CELSIUS
  WCI - WIND CHILL INDEX
   HX - HEAT INDEX
  VSB - VISIBILITY
$$





USA.gov is the U.S. government's official web portal to all federal, state and local government web resources and services.